• In Uzbekistan
  • List of Countries
  • For 7 days
  • Water Temperature
  • Satellite Maps
  • Weather Map
  • Weather Widgets
  • user-avatar
    Login

    Hourly Weather Lubiesz

    Today, 17 July, Wednesday

    Time Temperature Precipitation Wind Pressure Humidity
    00:00 +12°C° 0 mm 3 mps 748 mmHg 94%
    01:00 +12°C° 0 mm 4 mps 748 mmHg 94%
    02:00 +12°C° 0 mm 3 mps 748 mmHg 95%
    03:00 +11°C° 0 mm 3 mps 748 mmHg 95%
    04:00 +11°C° 0 mm 3 mps 748 mmHg 95%
    05:00 +12°C° 0 mm 3 mps 748 mmHg 89%
    06:00 +14°C° 0 mm 3 mps 748 mmHg 83%
    07:00 +16°C° 0 mm 3 mps 749 mmHg 77%
    08:00 +17°C° 0.1 mm 3 mps 749 mmHg 72%
    09:00 +18°C° 0.1 mm 4 mps 749 mmHg 67%
    10:00 +19°C° 0.1 mm 4 mps 749 mmHg 62%
    11:00 +20°C° 0.1 mm 4 mps 749 mmHg 60%
    12:00 +20°C° 0.1 mm 4 mps 749 mmHg 58%
    13:00 +21°C° 0.1 mm 4 mps 749 mmHg 56%
    14:00 +21°C° 0 mm 4 mps 749 mmHg 56%
    15:00 +21°C° 0 mm 4 mps 749 mmHg 56%
    16:00 +21°C° 0 mm 4 mps 750 mmHg 56%
    17:00 +20°C° 0 mm 4 mps 749 mmHg 61%
    18:00 +19°C° 0 mm 3 mps 749 mmHg 66%
    19:00 +17°C° 0 mm 3 mps 749 mmHg 70%
    20:00 +16°C° 0 mm 2 mps 750 mmHg 75%
    21:00 +14°C° 0 mm 2 mps 750 mmHg 80%
    22:00 +13°C° 0 mm 2 mps 750 mmHg 85%
    23:00 +12°C° 0 mm 2 mps 750 mmHg 86%

    Tomorrow, 18 July, Thursday

    Time Temperature Precipitation Wind Pressure Humidity
    00:00 +12°C° 0 mm 1 mps 750 mmHg 87%
    01:00 +11°C° 0 mm 1 mps 750 mmHg 88%
    02:00 +11°C° 0 mm 1 mps 750 mmHg 89%
    03:00 +11°C° 0 mm 1 mps 750 mmHg 90%
    04:00 +10°C° 0 mm 1 mps 750 mmHg 90%
    05:00 +11°C° 0 mm 0 mps 750 mmHg 82%
    06:00 +13°C° 0 mm 0 mps 750 mmHg 73%
    07:00 +15°C° 0 mm 0 mps 750 mmHg 65%
    08:00 +17°C° 0 mm 0 mps 750 mmHg 60%
    09:00 +19°C° 0 mm 0 mps 750 mmHg 55%
    10:00 +23°C° 0 mm 1 mps 750 mmHg 50%
    11:00 +24°C° 0 mm 1 mps 750 mmHg 47%
    12:00 +24°C° 0 mm 1 mps 750 mmHg 45%
    13:00 +25°C° 0 mm 1 mps 750 mmHg 43%
    14:00 +25°C° 0.1 mm 1 mps 750 mmHg 46%
    15:00 +24°C° 0.1 mm 1 mps 750 mmHg 49%
    16:00 +24°C° 0.1 mm 2 mps 749 mmHg 52%
    17:00 +23°C° 0 mm 2 mps 749 mmHg 58%
    18:00 +21°C° 0 mm 2 mps 749 mmHg 64%
    19:00 +21°C° 0 mm 1 mps 749 mmHg 70%
    20:00 +20°C° 0 mm 1 mps 749 mmHg 73%
    21:00 +18°C° 0 mm 1 mps 750 mmHg 77%
    22:00 +16°C° 0 mm 1 mps 750 mmHg 81%
    23:00 +16°C° 0 mm 1 mps 750 mmHg 79%

    Day after tomorrow, 19 July, Friday

    Time Temperature Precipitation Wind Pressure Humidity
    00:00 +15°C° 0 mm 1 mps 750 mmHg 77%
    01:00 +15°C° 0 mm 1 mps 749 mmHg 75%
    02:00 +15°C° 0 mm 1 mps 749 mmHg 74%
    03:00 +14°C° 0 mm 1 mps 749 mmHg 72%
    04:00 +14°C° 0 mm 1 mps 749 mmHg 70%
    05:00 +15°C° 0 mm 2 mps 749 mmHg 68%
    06:00 +17°C° 0 mm 2 mps 749 mmHg 66%
    07:00 +18°C° 0 mm 2 mps 749 mmHg 64%
    08:00 +20°C° 0 mm 2 mps 749 mmHg 59%
    09:00 +21°C° 0 mm 2 mps 749 mmHg 54%
    10:00 +24°C° 0 mm 2 mps 750 mmHg 49%
    11:00 +24°C° 0 mm 2 mps 750 mmHg 49%
    12:00 +25°C° 0 mm 2 mps 749 mmHg 50%
    13:00 +25°C° 0 mm 2 mps 749 mmHg 51%
    14:00 +25°C° 0.1 mm 2 mps 749 mmHg 51%
    15:00 +25°C° 0.1 mm 1 mps 749 mmHg 51%
    16:00 +25°C° 0.1 mm 1 mps 749 mmHg 52%
    17:00 +24°C° 0.2 mm 1 mps 749 mmHg 59%
    18:00 +23°C° 0.2 mm 1 mps 749 mmHg 66%
    19:00 +22°C° 0.2 mm 1 mps 749 mmHg 74%
    20:00 +21°C° 0.1 mm 1 mps 750 mmHg 77%
    21:00 +20°C° 0.1 mm 1 mps 750 mmHg 81%
    22:00 +18°C° 0.1 mm 1 mps 750 mmHg 84%
    23:00 +16°C° 0 mm 0 mps 750 mmHg 84%

    20 July, Saturday

    Time Temperature Precipitation Wind Pressure Humidity
    00:00 +16°C° 0 mm 0 mps 750 mmHg 85%
    01:00 +16°C° 0 mm 0 mps 750 mmHg 85%
    02:00 +16°C° 0 mm 0 mps 750 mmHg 85%
    03:00 +15°C° 0 mm 0 mps 750 mmHg 86%
    04:00 +15°C° 0 mm 0 mps 750 mmHg 87%
    05:00 +16°C° 0 mm 0 mps 750 mmHg 82%
    06:00 +18°C° 0 mm 0 mps 751 mmHg 77%
    07:00 +20°C° 0 mm 0 mps 751 mmHg 73%
    08:00 +22°C° 0 mm 0 mps 751 mmHg 66%
    09:00 +23°C° 0 mm 0 mps 751 mmHg 58%
    10:00 +25°C° 0 mm 0 mps 752 mmHg 51%
    11:00 +26°C° 0 mm 0 mps 752 mmHg 49%
    12:00 +28°C° 0 mm 1 mps 752 mmHg 46%
    13:00 +29°C° 0 mm 1 mps 751 mmHg 43%
    14:00 +29°C° 0 mm 1 mps 751 mmHg 43%
    15:00 +29°C° 0 mm 1 mps 751 mmHg 42%
    16:00 +29°C° 0 mm 1 mps 751 mmHg 42%
    17:00 +28°C° 0 mm 1 mps 751 mmHg 48%
    18:00 +27°C° 0 mm 1 mps 751 mmHg 54%
    19:00 +25°C° 0 mm 1 mps 751 mmHg 60%
    20:00 +24°C° 0 mm 1 mps 751 mmHg 65%
    21:00 +23°C° 0 mm 2 mps 751 mmHg 69%
    22:00 +20°C° 0 mm 2 mps 752 mmHg 74%
    23:00 +20°C° 0 mm 2 mps 751 mmHg 74%

    21 July, Sunday

    Time Temperature Precipitation Wind Pressure Humidity
    00:00 +20°C° 0 mm 2 mps 751 mmHg 75%
    01:00 +20°C° 0 mm 2 mps 751 mmHg 76%
    02:00 +19°C° 0 mm 2 mps 751 mmHg 75%
    03:00 +19°C° 0 mm 2 mps 751 mmHg 74%
    04:00 +19°C° 0 mm 2 mps 751 mmHg 74%
    05:00 +20°C° 0.1 mm 2 mps 751 mmHg 73%
    06:00 +21°C° 0.1 mm 2 mps 751 mmHg 71%
    07:00 +23°C° 0.1 mm 2 mps 751 mmHg 70%
    08:00 +23°C° 0.5 mm 2 mps 752 mmHg 74%
    09:00 +23°C° 0.5 mm 2 mps 752 mmHg 78%
    10:00 +22°C° 0.5 mm 1 mps 752 mmHg 82%
    11:00 +21°C° 0.4 mm 2 mps 752 mmHg 83%
    12:00 +21°C° 0.4 mm 2 mps 752 mmHg 84%
    13:00 +21°C° 0.4 mm 2 mps 752 mmHg 85%
    14:00 +24°C° 0 mm 3 mps 752 mmHg 77%
    15:00 +25°C° 0 mm 3 mps 752 mmHg 69%
    16:00 +26°C° 0 mm 3 mps 752 mmHg 62%
    17:00 +25°C° 0.1 mm 3 mps 752 mmHg 66%
    18:00 +25°C° 0.1 mm 2 mps 752 mmHg 71%
    19:00 +24°C° 0.1 mm 2 mps 752 mmHg 76%
    20:00 +23°C° 0 mm 2 mps 752 mmHg 80%
    21:00 +21°C° 0 mm 2 mps 752 mmHg 85%
    22:00 +19°C° 0 mm 2 mps 752 mmHg 90%
    23:00 +19°C° 0 mm 2 mps 752 mmHg 92%

    22 July, Monday

    Time Temperature Precipitation Wind Pressure Humidity
    00:00 +18°C° 0 mm 2 mps 752 mmHg 94%
    01:00 +18°C° 0 mm 2 mps 752 mmHg 97%
    02:00 +18°C° 0 mm 2 mps 752 mmHg 97%
    03:00 +17°C° 0 mm 2 mps 753 mmHg 97%
    04:00 +17°C° 0 mm 2 mps 753 mmHg 98%
    05:00 +18°C° 0 mm 3 mps 753 mmHg 94%
    06:00 +19°C° 0 mm 3 mps 753 mmHg 90%
    07:00 +20°C° 0 mm 3 mps 753 mmHg 86%
    08:00 +21°C° 0 mm 3 mps 753 mmHg 80%
    09:00 +23°C° 0 mm 4 mps 754 mmHg 73%
    10:00 +25°C° 0 mm 4 mps 754 mmHg 67%
    11:00 +26°C° 0.1 mm 4 mps 754 mmHg 64%
    12:00 +26°C° 0.1 mm 4 mps 754 mmHg 62%
    13:00 +27°C° 0.1 mm 4 mps 754 mmHg 59%
    14:00 +27°C° 0.2 mm 4 mps 754 mmHg 60%
    15:00 +26°C° 0.2 mm 4 mps 753 mmHg 61%
    16:00 +26°C° 0.2 mm 4 mps 753 mmHg 62%
    17:00 +25°C° 0 mm 4 mps 753 mmHg 66%
    18:00 +24°C° 0 mm 3 mps 753 mmHg 71%
    19:00 +22°C° 0 mm 3 mps 753 mmHg 76%
    20:00 +20°C° 0 mm 3 mps 754 mmHg 83%
    21:00 +19°C° 0 mm 2 mps 754 mmHg 89%
    22:00 +17°C° 0 mm 2 mps 754 mmHg 96%
    23:00 +17°C° 0 mm 2 mps 754 mmHg 96%
    Show more